| time (UTC) | temp F | wind direction | speed MPH | gust MPH | rain 1hr in | rain 24hr in | rain mn in | humidity % | barometer mb |
| 20260506082928 | 56 | 299 | 2.0 | 10.0 | 0.00 | 0.03 | 0.00 | 81 | 1019.0 |
| 20260506082434 | 56 | 313 | 4.0 | 10.0 | 0.00 | 0.03 | 0.00 | 80 | 1019.0 |
| 20260506081920 | 57 | 273 | 4.0 | 9.0 | 0.00 | 0.03 | 0.00 | 80 | 1019.1 |
| 20260506081427 | 56 | 286 | 3.0 | 8.0 | 0.00 | 0.03 | 0.00 | 80 | 1019.0 |
| 20260506080934 | 56 | 294 | 5.0 | 10.0 | 0.00 | 0.03 | 0.00 | 80 | 1019.0 |
| 20260506080440 | 56 | 277 | 5.0 | 10.0 | 0.00 | 0.03 | 0.00 | 80 | 1019.1 |
| 20260506073419 | 56 | 290 | 7.0 | 11.0 | 0.00 | 0.06 | 0.00 | 81 | 1018.8 |
| 20260506072944 | 56 | 261 | 4.0 | 11.0 | 0.00 | 0.06 | 0.00 | 81 | 1018.9 |
| 20260506072427 | 56 | 278 | 7.0 | 12.0 | 0.00 | 0.06 | 0.00 | 81 | 1018.7 |
| 20260506071933 | 56 | 280 | 6.0 | 12.0 | 0.00 | 0.06 | 0.00 | 82 | 1018.8 |
| 20260506071418 | 56 | 260 | 5.0 | 11.0 | 0.00 | 0.06 | 0.00 | 82 | 1018.6 |
| 20260506070946 | 56 | 239 | 6.0 | 12.0 | 0.00 | 0.06 | 0.00 | 82 | 1018.7 |
| 20260506070433 | 56 | 283 | 4.0 | 12.0 | 0.00 | 0.06 | 0.00 | 83 | 1018.7 |
| 20260506062430 | 57 | 306 | 6.0 | 9.0 | 0.00 | 0.07 | 0.06 | 83 | 1018.3 |
| 20260506061933 | 57 | 314 | 4.0 | 11.0 | 0.00 | 0.07 | 0.06 | 82 | 1018.3 |
| 20260506061420 | 57 | 283 | 6.0 | 11.0 | 0.00 | 0.07 | 0.06 | 82 | 1018.2 |
| 20260506060928 | 57 | 302 | 6.0 | 12.0 | 0.00 | 0.07 | 0.06 | 82 | 1018.2 |
| 20260506060436 | 57 | 282 | 4.0 | 12.0 | 0.00 | 0.07 | 0.06 | 82 | 1018.2 |
| 20260506050919 | 57 | 276 | 6.0 | 11.0 | 0.00 | 0.09 | 0.06 | 83 | 1018.0 |
| 20260506050429 | 57 | 261 | 5.0 | 10.0 | 0.00 | 0.09 | 0.06 | 83 | 1018.0 |
| 20260506044940 | 57 | 301 | 6.0 | 10.0 | 0.00 | 0.10 | 0.06 | 83 | 1017.8 |
| 20260506044448 | 57 | 296 | 6.0 | 12.0 | 0.00 | 0.10 | 0.06 | 83 | 1017.8 |
| 20260506043935 | 57 | 294 | 5.0 | 10.0 | 0.00 | 0.10 | 0.06 | 83 | 1017.9 |
| 20260506043422 | 57 | 264 | 6.0 | 10.0 | 0.00 | 0.10 | 0.06 | 83 | 1017.8 |
| 20260506042927 | 57 | 268 | 5.0 | 10.0 | 0.00 | 0.10 | 0.06 | 82 | 1017.7 |
| 20260506042435 | 57 | 299 | 5.0 | 13.0 | 0.00 | 0.10 | 0.06 | 82 | 1017.8 |
| 20260506041933 | 57 | 264 | 3.0 | 9.0 | 0.00 | 0.10 | 0.06 | 82 | 1017.5 |
| 20260506041420 | 57 | 222 | 5.0 | 9.0 | 0.00 | 0.10 | 0.06 | 82 | 1017.5 |
| 20260506040942 | 57 | 268 | 6.0 | 9.0 | 0.00 | 0.10 | 0.06 | 82 | 1017.4 |
| 20260506040428 | 57 | 295 | 4.0 | 8.0 | 0.00 | 0.10 | 0.06 | 81 | 1017.4 |
| 20260506035931 | 57 | 268 | 4.0 | 10.0 | 0.00 | 0.10 | 0.06 | 81 | 1017.2 |
| 20260506035434 | 57 | 230 | 6.0 | 10.0 | 0.00 | 0.10 | 0.06 | 81 | 1017.2 |
| 20260506034941 | 57 | 234 | 6.0 | 12.0 | 0.00 | 0.10 | 0.06 | 80 | 1017.1 |
| 20260506034423 | 57 | 270 | 5.0 | 13.0 | 0.00 | 0.10 | 0.06 | 80 | 1016.9 |
| 20260506033930 | 57 | 274 | 6.0 | 13.0 | 0.00 | 0.10 | 0.06 | 80 | 1016.9 |
| 20260506033437 | 57 | 212 | 6.0 | 12.0 | 0.00 | 0.10 | 0.06 | 80 | 1016.8 |
| 20260506032924 | 57 | 251 | 5.0 | 12.0 | 0.00 | 0.10 | 0.06 | 79 | 1016.8 |
| 20260506032430 | 57 | 251 | 6.0 | 12.0 | 0.00 | 0.10 | 0.06 | 79 | 1016.7 |
| 20260506031933 | 58 | 282 | 5.0 | 11.0 | 0.00 | 0.10 | 0.06 | 79 | 1016.7 |
| 20260506031437 | 58 | 240 | 5.0 | 11.0 | 0.00 | 0.10 | 0.06 | 79 | 1016.6 |
| 20260506030924 | 58 | 271 | 5.0 | 12.0 | 0.00 | 0.10 | 0.06 | 78 | 1016.5 |
| 20260506030429 | 58 | 359 | 6.0 | 12.0 | 0.00 | 0.10 | 0.06 | 79 | 1016.4 |
| 20260506025932 | 58 | 237 | 6.0 | 12.0 | 0.00 | 0.10 | 0.06 | 79 | 1016.3 |
| 20260506025418 | 58 | 222 | 6.0 | 12.0 | 0.00 | 0.10 | 0.06 | 79 | 1016.2 |
| 20260506024925 | 58 | 292 | 6.0 | 11.0 | 0.00 | 0.10 | 0.06 | 78 | 1016.2 |
| 20260506024429 | 58 | 239 | 6.0 | 11.0 | 0.00 | 0.10 | 0.06 | 78 | 1016.2 |
| 20260506023937 | 58 | 252 | 6.0 | 12.0 | 0.00 | 0.10 | 0.06 | 79 | 1016.2 |
| 20260506023422 | 58 | 258 | 8.0 | 16.0 | 0.00 | 0.10 | 0.06 | 78 | 1016.2 |
| 20260506022929 | 58 | 251 | 8.0 | 16.0 | 0.00 | 0.10 | 0.06 | 78 | 1016.2 |
| 20260506022437 | 58 | 274 | 9.0 | 14.0 | 0.00 | 0.10 | 0.06 | 78 | 1016.1 |
| 20260506021925 | 58 | 249 | 8.0 | 14.0 | 0.00 | 0.10 | 0.06 | 77 | 1016.0 |
| 20260506021432 | 58 | 257 | 8.0 | 20.0 | 0.00 | 0.10 | 0.06 | 77 | 1016.0 |
| 20260506020940 | 58 | 235 | 11.0 | 20.0 | 0.00 | 0.10 | 0.06 | 77 | 1015.9 |
| 20260506020421 | 59 | 260 | 8.0 | 18.0 | 0.00 | 0.10 | 0.06 | 77 | 1015.9 |
| 20260506015928 | 58 | 274 | 10.0 | 18.0 | 0.00 | 0.10 | 0.06 | 77 | 1015.9 |
| 20260506015434 | 59 | 251 | 10.0 | 17.0 | 0.00 | 0.10 | 0.06 | 76 | 1015.9 |
| 20260506014921 | 59 | 259 | 11.0 | 17.0 | 0.00 | 0.10 | 0.06 | 76 | 1015.9 |
| 20260506014429 | 59 | 281 | 9.0 | 17.0 | 0.00 | 0.10 | 0.06 | 75 | 1016.0 |
| 20260506013935 | 59 | 270 | 8.0 | 18.0 | 0.00 | 0.10 | 0.06 | 75 | 1016.0 |
| 20260506013419 | 60 | 251 | 9.0 | 16.0 | 0.00 | 0.10 | 0.06 | 74 | 1016.0 |
| 20260506012922 | 60 | 276 | 6.0 | 16.0 | 0.00 | 0.10 | 0.06 | 74 | 1016.1 |
| 20260506012431 | 60 | 275 | 7.0 | 15.0 | 0.00 | 0.10 | 0.06 | 74 | 1016.1 |
| 20260506011937 | 60 | 177 | 8.0 | 15.0 | 0.00 | 0.10 | 0.06 | 73 | 1016.1 |
| 20260506011423 | 60 | 277 | 9.0 | 14.0 | 0.00 | 0.10 | 0.06 | 73 | 1016.0 |
| 20260506010928 | 61 | 287 | 10.0 | 18.0 | 0.00 | 0.10 | 0.06 | 74 | 1016.0 |
| 20260506010436 | 60 | 263 | 9.0 | 18.0 | 0.00 | 0.10 | 0.06 | 73 | 1015.9 |
| 20260506005920 | 61 | 251 | 10.0 | 18.0 | 0.00 | 0.10 | 0.06 | 72 | 1016.0 |
| 20260506005428 | 61 | 27 | 9.0 | 18.0 | 0.00 | 0.10 | 0.06 | 71 | 1015.9 |
| 20260506004931 | 61 | 225 | 8.0 | 15.0 | 0.00 | 0.10 | 0.06 | 71 | 1015.9 |
| 20260506004434 | 61 | 285 | 6.0 | 15.0 | 0.00 | 0.10 | 0.06 | 73 | 1015.7 |
| 20260506003919 | 61 | 293 | 8.0 | 16.0 | 0.00 | 0.10 | 0.06 | 73 | 1015.7 |
| 20260506003426 | 61 | 213 | 10.0 | 20.0 | 0.00 | 0.10 | 0.06 | 72 | 1015.6 |
| 20260506002933 | 61 | 286 | 9.0 | 20.0 | 0.00 | 0.10 | 0.06 | 73 | 1015.6 |
| 20260506002438 | 61 | 277 | 11.0 | 20.0 | 0.00 | 0.10 | 0.06 | 72 | 1015.5 |
| 20260506001924 | 61 | 278 | 10.0 | 18.0 | 0.00 | 0.10 | 0.06 | 72 | 1015.5 |
| 20260506001425 | 61 | 261 | 10.0 | 18.0 | 0.00 | 0.10 | 0.06 | 72 | 1015.4 |
| 20260506000933 | 61 | 256 | 8.0 | 18.0 | 0.00 | 0.10 | 0.06 | 73 | 1015.4 |
| 20260506000420 | 61 | 277 | 9.0 | 18.0 | 0.00 | 0.10 | 0.06 | 74 | 1015.3 |
| 20260505235925 | 60 | 228 | 10.0 | 16.0 | 0.00 | 0.10 | 0.06 | 74 | 1015.3 |
| 20260505235432 | 60 | 270 | 9.0 | 17.0 | 0.00 | 0.10 | 0.06 | 75 | 1015.4 |
| 20260505234922 | 60 | 268 | 11.0 | 19.0 | 0.00 | 0.10 | 0.06 | 75 | 1015.4 |
| 20260505234427 | 60 | 268 | 11.0 | 18.0 | 0.00 | 0.10 | 0.06 | 74 | 1015.3 |
| 20260505233930 | 60 | 268 | 11.0 | 20.0 | 0.00 | 0.10 | 0.06 | 74 | 1015.4 |
| 20260505233437 | 60 | 277 | 10.0 | 20.0 | 0.00 | 0.10 | 0.06 | 74 | 1015.5 |
| 20260505232954 | 60 | 263 | 11.0 | 19.0 | 0.00 | 0.10 | 0.06 | 73 | 1015.5 |
| 20260505232421 | 61 | 257 | 12.0 | 20.0 | 0.00 | 0.10 | 0.06 | 74 | 1015.5 |
| 20260505231928 | 61 | 283 | 10.0 | 21.0 | 0.00 | 0.10 | 0.06 | 73 | 1015.4 |
| 20260505231435 | 61 | 314 | 9.0 | 20.0 | 0.00 | 0.10 | 0.06 | 73 | 1015.4 |
| 20260505230941 | 61 | 256 | 12.0 | 19.0 | 0.00 | 0.10 | 0.06 | 73 | 1015.3 |
| 20260505230443 | 61 | 242 | 11.0 | 21.0 | 0.00 | 0.10 | 0.06 | 73 | 1015.2 |
| 20260505225928 | 62 | 237 | 8.0 | 21.0 | 0.00 | 0.10 | 0.06 | 73 | 1015.3 |
| 20260505225433 | 61 | 268 | 12.0 | 22.0 | 0.00 | 0.10 | 0.06 | 71 | 1015.2 |
| 20260505224918 | 62 | 263 | 10.0 | 22.0 | 0.00 | 0.10 | 0.06 | 72 | 1015.4 |
| 20260505224423 | 62 | 252 | 13.0 | 22.0 | 0.00 | 0.10 | 0.06 | 72 | 1015.4 |
| 20260505223926 | 62 | 269 | 13.0 | 22.0 | 0.00 | 0.10 | 0.06 | 73 | 1015.4 |
| 20260505223433 | 61 | 282 | 13.0 | 21.0 | 0.00 | 0.10 | 0.06 | 73 | 1015.6 |
| 20260505222936 | 61 | 261 | 11.0 | 19.0 | 0.00 | 0.10 | 0.06 | 74 | 1015.4 |
| 20260505222441 | 61 | 287 | 9.0 | 20.0 | 0.00 | 0.10 | 0.06 | 74 | 1015.5 |
| 20260505221926 | 60 | 249 | 9.0 | 20.0 | 0.00 | 0.10 | 0.06 | 75 | 1015.6 |
| 20260505221433 | 60 | 250 | 11.0 | 18.0 | 0.00 | 0.10 | 0.06 | 75 | 1015.7 |
| 20260505220942 | 61 | 251 | 10.0 | 17.0 | 0.00 | 0.10 | 0.06 | 75 | 1015.8 |
| 20260505220447 | 61 | 247 | 12.0 | 17.0 | 0.00 | 0.10 | 0.06 | 74 | 1015.8 |
| 20260505215928 | 61 | 252 | 7.0 | 15.0 | 0.00 | 0.10 | 0.06 | 75 | 1015.9 |
| 20260505215432 | 60 | 259 | 10.0 | 15.0 | 0.00 | 0.10 | 0.06 | 76 | 1015.8 |
| 20260505214935 | 60 | 275 | 8.0 | 17.0 | 0.00 | 0.10 | 0.06 | 75 | 1015.9 |
| 20260505214423 | 61 | 263 | 9.0 | 19.0 | 0.00 | 0.10 | 0.06 | 75 | 1016.0 |
| 20260505213930 | 60 | 287 | 9.0 | 19.0 | 0.00 | 0.10 | 0.06 | 74 | 1016.1 |
| 20260505213436 | 60 | 295 | 8.0 | 16.0 | 0.00 | 0.10 | 0.06 | 74 | 1016.1 |
| 20260505212918 | 60 | 268 | 8.0 | 15.0 | 0.00 | 0.10 | 0.06 | 74 | 1016.1 |
| 20260505212421 | 60 | 252 | 10.0 | 17.0 | 0.00 | 0.10 | 0.06 | 74 | 1016.1 |
| 20260505211928 | 61 | 243 | 10.0 | 16.0 | 0.00 | 0.10 | 0.06 | 74 | 1016.1 |
| 20260505211435 | 61 | 263 | 10.0 | 17.0 | 0.00 | 0.10 | 0.06 | 73 | 1016.1 |
| 20260505210921 | 61 | 256 | 8.0 | 15.0 | 0.00 | 0.10 | 0.06 | 73 | 1016.1 |
| 20260505210428 | 61 | 282 | 10.0 | 14.0 | 0.00 | 0.10 | 0.06 | 73 | 1016.1 |
| 20260505205934 | 61 | 219 | 8.0 | 15.0 | 0.00 | 0.10 | 0.06 | 73 | 1016.1 |
| 20260505205441 | 61 | 272 | 7.0 | 19.0 | 0.00 | 0.10 | 0.06 | 73 | 1016.0 |
| 20260505204922 | 60 | 282 | 10.0 | 18.0 | 0.00 | 0.10 | 0.06 | 73 | 1016.1 |
| 20260505204426 | 60 | 347 | 8.0 | 19.0 | 0.00 | 0.10 | 0.06 | 74 | 1016.1 |
| 20260505203932 | 60 | 259 | 12.0 | 20.0 | 0.00 | 0.10 | 0.06 | 73 | 1016.1 |
| 20260505203446 | 61 | 288 | 9.0 | 15.0 | 0.00 | 0.10 | 0.06 | 72 | 1016.1 |
| 20260505203001 | 61 | 268 | 10.0 | 15.0 | 0.00 | 0.10 | 0.06 | 72 | 1016.1 |
| 20260505202458 | 61 | 284 | 9.0 | 19.0 | 0.00 | 0.10 | 0.06 | 73 | 1016.1 |
| 20260505201923 | 61 | 284 | 11.0 | 21.0 | 0.00 | 0.10 | 0.06 | 72 | 1016.1 |
| 20260505201421 | 61 | 275 | 12.0 | 17.0 | 0.00 | 0.10 | 0.06 | 72 | 1016.1 |
| 20260505200927 | 61 | 249 | 11.0 | 18.0 | 0.00 | 0.10 | 0.06 | 71 | 1016.1 |
| 20260505200431 | 61 | 203 | 8.0 | 20.0 | 0.00 | 0.10 | 0.06 | 73 | 1016.0 |
| 20260505195919 | 61 | 268 | 11.0 | 20.0 | 0.00 | 0.10 | 0.06 | 73 | 1015.9 |
| 20260505195423 | 60 | 277 | 11.0 | 22.0 | 0.00 | 0.10 | 0.06 | 73 | 1016.2 |
| 20260505194928 | 60 | 265 | 14.0 | 22.0 | 0.00 | 0.10 | 0.06 | 73 | 1016.2 |
| 20260505194435 | 61 | 308 | 9.0 | 19.0 | 0.00 | 0.10 | 0.06 | 74 | 1016.1 |
| 20260505193934 | 60 | 239 | 11.0 | 19.0 | 0.00 | 0.10 | 0.06 | 74 | 1016.2 |
| 20260505193422 | 60 | 294 | 12.0 | 18.0 | 0.00 | 0.10 | 0.06 | 74 | 1016.2 |
| 20260505192929 | 60 | 258 | 10.0 | 19.0 | 0.00 | 0.10 | 0.06 | 74 | 1016.2 |
| 20260505192436 | 60 | 259 | 9.0 | 19.0 | 0.00 | 0.10 | 0.06 | 74 | 1016.2 |
| 20260505191926 | 60 | 289 | 9.0 | 16.0 | 0.00 | 0.10 | 0.06 | 74 | 1016.2 |
| 20260505191431 | 59 | 221 | 12.0 | 16.0 | 0.00 | 0.10 | 0.06 | 75 | 1016.2 |
| 20260505190937 | 59 | 261 | 10.0 | 16.0 | 0.00 | 0.10 | 0.06 | 74 | 1016.1 |
| 20260505190440 | 59 | 265 | 9.0 | 14.0 | 0.00 | 0.10 | 0.06 | 76 | 1016.0 |
| 20260505185917 | 59 | 235 | 7.0 | 17.0 | 0.00 | 0.10 | 0.06 | 76 | 1015.9 |
| 20260505185423 | 59 | 295 | 8.0 | 17.0 | 0.00 | 0.10 | 0.06 | 77 | 1015.9 |
| 20260505184931 | 59 | 300 | 9.0 | 18.0 | 0.00 | 0.10 | 0.06 | 77 | 1015.9 |
| 20260505184436 | 59 | 315 | 9.0 | 18.0 | 0.00 | 0.10 | 0.06 | 77 | 1015.9 |
| 20260505183923 | 59 | 282 | 7.0 | 17.0 | 0.00 | 0.10 | 0.06 | 77 | 1015.9 |
| 20260505183430 | 59 | 261 | 8.0 | 17.0 | 0.00 | 0.10 | 0.06 | 78 | 1015.9 |
| 20260505182936 | 59 | 283 | 7.0 | 19.0 | 0.00 | 0.10 | 0.06 | 78 | 1016.0 |
| 20260505182419 | 59 | 281 | 12.0 | 19.0 | 0.00 | 0.10 | 0.06 | 77 | 1016.1 |
| 20260505181953 | 59 | 263 | 8.0 | 16.0 | 0.00 | 0.10 | 0.06 | 77 | 1016.2 |
| 20260505181435 | 59 | 289 | 8.0 | 14.0 | 0.00 | 0.10 | 0.06 | 79 | 1016.1 |
| 20260505180952 | 59 | 265 | 6.0 | 13.0 | 0.00 | 0.10 | 0.06 | 80 | 1016.2 |
| 20260505180419 | 58 | 280 | 6.0 | 15.0 | 0.00 | 0.10 | 0.06 | 80 | 1016.0 |
| 20260505175943 | 58 | 314 | 5.0 | 15.0 | 0.00 | 0.10 | 0.06 | 81 | 1015.8 |
| 20260505175423 | 58 | 270 | 10.0 | 17.0 | 0.00 | 0.10 | 0.06 | 81 | 1015.8 |
| 20260505174930 | 57 | 275 | 10.0 | 17.0 | 0.00 | 0.10 | 0.06 | 81 | 1015.7 |
| 20260505174416 | 57 | 241 | 7.0 | 16.0 | 0.00 | 0.10 | 0.06 | 82 | 1015.7 |
| 20260505173925 | 57 | 290 | 9.0 | 17.0 | 0.00 | 0.10 | 0.06 | 83 | 1015.6 |
| 20260505173431 | 57 | 261 | 9.0 | 17.0 | 0.00 | 0.10 | 0.06 | 82 | 1015.7 |
| 20260505172919 | 57 | 270 | 11.0 | 14.0 | 0.00 | 0.10 | 0.06 | 83 | 1015.6 |
| 20260505172424 | 57 | 285 | 10.0 | 15.0 | 0.00 | 0.10 | 0.06 | 83 | 1015.5 |
| 20260505171932 | 57 | 274 | 9.0 | 14.0 | 0.00 | 0.10 | 0.06 | 83 | 1015.6 |
| 20260505171434 | 57 | 283 | 6.0 | 15.0 | 0.00 | 0.10 | 0.06 | 84 | 1015.6 |
| 20260505170941 | 57 | 323 | 9.0 | 15.0 | 0.00 | 0.10 | 0.06 | 84 | 1015.6 |
| 20260505170426 | 56 | 283 | 9.0 | 15.0 | 0.00 | 0.10 | 0.06 | 84 | 1015.5 |
| 20260505165933 | 56 | 249 | 10.0 | 15.0 | 0.00 | 0.10 | 0.06 | 85 | 1015.6 |
| 20260505165419 | 57 | 295 | 6.0 | 13.0 | 0.00 | 0.10 | 0.06 | 85 | 1015.6 |
| 20260505164944 | 56 | 280 | 8.0 | 13.0 | 0.00 | 0.10 | 0.06 | 85 | 1015.6 |
| 20260505164422 | 56 | 313 | 9.0 | 13.0 | 0.00 | 0.10 | 0.06 | 85 | 1015.6 |
| 20260505163931 | 56 | 270 | 6.0 | 16.0 | 0.00 | 0.10 | 0.06 | 85 | 1015.5 |
| 20260505163434 | 56 | 293 | 10.0 | 16.0 | 0.00 | 0.10 | 0.06 | 85 | 1015.6 |
| 20260505162919 | 56 | 256 | 7.0 | 13.0 | 0.00 | 0.10 | 0.06 | 86 | 1015.7 |
| 20260505162448 | 56 | 299 | 8.0 | 13.0 | 0.00 | 0.10 | 0.06 | 86 | 1015.6 |
| 20260505161933 | 56 | 268 | 8.0 | 13.0 | 0.00 | 0.10 | 0.06 | 85 | 1015.6 |
| 20260505161420 | 56 | 273 | 7.0 | 10.0 | 0.00 | 0.10 | 0.06 | 86 | 1015.5 |
| 20260505160924 | 56 | 289 | 5.0 | 10.0 | 0.00 | 0.10 | 0.06 | 86 | 1015.4 |
| 20260505160428 | 56 | 202 | 5.0 | 11.0 | 0.00 | 0.10 | 0.06 | 86 | 1015.4 |
| 20260505152924 | 55 | 268 | 7.0 | 14.0 | 0.00 | 0.10 | 0.06 | 86 | 1015.1 |
| 20260505152432 | 55 | 301 | 5.0 | 16.0 | 0.00 | 0.10 | 0.06 | 86 | 1015.1 |
| 20260505151920 | 55 | 348 | 10.0 | 17.0 | 0.00 | 0.10 | 0.06 | 85 | 1015.1 |
| 20260505151427 | 55 | 243 | 9.0 | 17.0 | 0.00 | 0.10 | 0.06 | 85 | 1015.1 |
| 20260505150933 | 55 | 297 | 6.0 | 11.0 | 0.00 | 0.10 | 0.06 | 85 | 1015.1 |
| 20260505150419 | 55 | 285 | 4.0 | 9.0 | 0.00 | 0.10 | 0.06 | 85 | 1015.0 |
| 20260505140419 | 55 | 215 | 4.0 | 11.0 | 0.00 | 0.10 | 0.06 | 84 | 1014.7 |
| 20260505124928 | 54 | 237 | 6.0 | 11.0 | 0.00 | 0.10 | 0.06 | 83 | 1014.3 |
| 20260505124434 | 54 | 275 | 6.0 | 16.0 | 0.00 | 0.10 | 0.06 | 83 | 1014.3 |
| 20260505123917 | 54 | 263 | 10.0 | 16.0 | 0.00 | 0.10 | 0.06 | 83 | 1014.4 |
| 20260505123445 | 54 | 261 | 8.0 | 13.0 | 0.00 | 0.10 | 0.06 | 83 | 1014.4 |
| 20260505122930 | 54 | 229 | 7.0 | 14.0 | 0.00 | 0.10 | 0.06 | 83 | 1014.3 |
| 20260505122417 | 54 | 273 | 7.0 | 14.0 | 0.00 | 0.10 | 0.06 | 83 | 1014.4 |
| 20260505121944 | 54 | 265 | 8.0 | 14.0 | 0.00 | 0.10 | 0.06 | 83 | 1014.3 |
| 20260505121457 | 54 | 221 | 7.0 | 15.0 | 0.00 | 0.10 | 0.06 | 83 | 1014.3 |
| 20260505120923 | 54 | 244 | 8.0 | 15.0 | 0.00 | 0.10 | 0.06 | 83 | 1014.4 |
| 20260505120427 | 54 | 264 | 9.0 | 15.0 | 0.00 | 0.10 | 0.06 | 82 | 1014.2 |
| 20260505115923 | 54 | 238 | 6.0 | 11.0 | 0.00 | 0.10 | 0.06 | 83 | 1014.3 |
| 20260505115431 | 54 | 254 | 6.0 | 11.0 | 0.00 | 0.10 | 0.06 | 83 | 1014.3 |
| 20260505114918 | 54 | 242 | 5.0 | 11.0 | 0.00 | 0.10 | 0.06 | 83 | 1014.3 |
| 20260505114425 | 54 | 245 | 6.0 | 12.0 | 0.00 | 0.10 | 0.06 | 82 | 1014.4 |
| 20260505113932 | 54 | 258 | 5.0 | 12.0 | 0.00 | 0.10 | 0.06 | 82 | 1014.4 |
| 20260505113420 | 54 | 229 | 5.0 | 10.0 | 0.00 | 0.10 | 0.06 | 82 | 1014.3 |
| 20260505112922 | 54 | 271 | 6.0 | 9.0 | 0.00 | 0.10 | 0.06 | 82 | 1014.6 |
| 20260505112428 | 54 | 303 | 3.0 | 9.0 | 0.00 | 0.10 | 0.06 | 82 | 1014.6 |
| 20260505111933 | 54 | 299 | 3.0 | 10.0 | 0.00 | 0.10 | 0.06 | 82 | 1014.6 |
| 20260505111421 | 54 | 268 | 6.0 | 11.0 | 0.00 | 0.10 | 0.06 | 81 | 1014.5 |
| 20260505110927 | 54 | 249 | 6.0 | 11.0 | 0.00 | 0.10 | 0.06 | 81 | 1014.4 |
| 20260505110436 | 54 | 242 | 5.0 | 12.0 | 0.00 | 0.10 | 0.06 | 81 | 1014.4 |
| 20260505101944 | 54 | 249 | 7.0 | 12.0 | 0.01 | 0.10 | 0.06 | 84 | 1014.4 |
| 20260505101426 | 54 | 284 | 6.0 | 13.0 | 0.01 | 0.10 | 0.06 | 84 | 1014.5 |
| 20260505100934 | 54 | 256 | 7.0 | 13.0 | 0.01 | 0.10 | 0.06 | 85 | 1014.5 |
| 20260505100448 | 54 | 268 | 5.0 | 8.0 | 0.01 | 0.10 | 0.06 | 85 | 1014.7 |
| 20260505100003 | 54 | 261 | 5.0 | 9.0 | 0.01 | 0.10 | 0.06 | 84 | 1014.7 |
| 20260505095457 | 54 | 263 | 4.0 | 11.0 | 0.01 | 0.10 | 0.06 | 85 | 1014.6 |
| 20260505094923 | 54 | 313 | 6.0 | 12.0 | 0.01 | 0.10 | 0.06 | 85 | 1014.7 |
| 20260505094425 | 54 | 289 | 7.0 | 14.0 | 0.01 | 0.10 | 0.06 | 85 | 1014.7 |
| 20260505093933 | 54 | 278 | 7.0 | 14.0 | 0.01 | 0.10 | 0.06 | 85 | 1014.7 |
| 20260505093420 | 54 | 244 | 7.0 | 13.0 | 0.01 | 0.09 | 0.05 | 85 | 1014.8 |
| 20260505092927 | 54 | 277 | 8.0 | 15.0 | 0.01 | 0.09 | 0.05 | 85 | 1014.8 |
| 20260505092435 | 54 | 270 | 8.0 | 15.0 | 0.01 | 0.09 | 0.05 | 85 | 1014.8 |
| 20260505091941 | 54 | 254 | 7.0 | 13.0 | 0.01 | 0.09 | 0.05 | 85 | 1015.0 |
| 20260505091427 | 54 | 242 | 6.0 | 13.0 | 0.01 | 0.09 | 0.05 | 85 | 1015.1 |
| 20260505090931 | 54 | 302 | 8.0 | 13.0 | 0.02 | 0.09 | 0.05 | 85 | 1015.2 |
| 20260505090418 | 54 | 268 | 5.0 | 10.0 | 0.02 | 0.09 | 0.05 | 85 | 1015.1 |
| 20260505085926 | 54 | 242 | 5.0 | 10.0 | 0.03 | 0.09 | 0.05 | 85 | 1015.0 |
| 20260505085433 | 54 | 263 | 4.0 | 11.0 | 0.03 | 0.09 | 0.05 | 85 | 1015.2 |
| 20260505084948 | 54 | 256 | 6.0 | 11.0 | 0.04 | 0.09 | 0.05 | 85 | 1015.2 |
| 20260505084433 | 54 | 249 | 6.0 | 13.0 | 0.04 | 0.09 | 0.05 | 85 | 1015.1 |
| 20260505083942 | 54 | 184 | 5.0 | 11.0 | 0.04 | 0.09 | 0.05 | 85 | 1015.2 |
| 20260505083423 | 54 | 209 | 6.0 | 11.0 | 0.04 | 0.08 | 0.04 | 85 | 1015.2 |